THORAD AGENA D DEB, 4818

Orbit data source: Space-Track

THORAD AGENA D DEB, 4818 is space debris in SSO originally from a launch on Wed, 08 Apr 1970 UTC launched from the Air Force Western Test Range (AFWTR). Debris objects in space refer to the collection of defunct objects orbiting the Earth. Examples of debris include non-operational satellites, rocket bodies, and fragments generated from explosions, collisions, or faulty payload assembly.

Loading next visibility...
Identifier
4818, 1970-025DZ
Orbit
SSO
Country
Flag of USUS
Related business
Manufacturer
Unknown
Mission
Spacecraft
Bus & Motor
Unknown
Mass
Unknown
Launch date (UTC)
1970-04-08 (56 years ago)
Launch vehicle
Unknown
Launch site
Air Force Western Test Range (AFWTR)
Object type
Payload
Rocket body
Debris
Shape & HBR
Unknown shape, 0.1 m
Radar Cross Section
Medium (>0.1 m² and <1 m²)

Expand to show TLE details & history
Last TLE update: 2 days ago

TLE from 2 days ago
0 THORAD AGENA D DEB
1  4818U 70025DZ  26171.35596645  .00000258  00000-0  71389-3 0  9991
2  4818  99.8961  82.7835 0269089 188.8798 290.2771 13.10317866680234
Epoch: 2026-06-20T08:32Z
TLE epoch observation values (Epoch: 2026-06-20T08:32:35.501Z)
Latitude
62.17837°
Longitude
-114.734°
Altitude
1,166.511 km
Speed
7.307 km/s
True Right ascension
18h 47m 56s
True Declination
62° 02' 38"
Sunlit
Object was in daylight at epoch
Visualization orbit readout
Latitude
Unknown
Longitude
Unknown
Altitude
Unknown
Speed
Unknown
Apparent Right ascension
Unknown
Apparent Declination
Unknown
Sunlit
N/A
Visualization observer readout
Local Sidereal Time
00:50:10
Azimuth
Unknown
Elevation
Unknown
Doppler factor
Unknown
Orbital elements
Apogee altitude
1,423.73 km
Perigee altitude
1,014.853 km
Semi-major axis
7,597.428 km
Eccentricity
0.02691
Inclination
99.8961°
RAAN
82.7835°
Arg. of periapsis
188.8798°
True anomaly
287.35184°
Mean anomaly
290.2771°
Eccentric anomaly
288.81774°
Mean motion
3.2775 °/min
Orbital period
109.84 mins
BSTAR
0.00071389

Documentation

Showing up to 5 results
|